DW5160 Weather Reports


time (UTC)temp
F
wind
direction
speed
knots
gust
knots
rain 1hr
in
rain 24hr
in
rain mn
in
humidity
%
barometer
mb
20260503200003 60 268 2.6 12.2 0.00 0.00 0.00 39 1014.3
20260503194601 60 263 0.0 8.7 0.00 0.00 0.00 40 1014.4
20260503193111 60 209 0.0 12.2 0.00 0.00 0.00 41 1014.7
20260503191559 59 195 4.3 11.3 0.00 0.00 0.00 39 1014.9
20260503190106 60 315 4.3 13.9 0.00 0.00 0.00 39 1015.2
20260503184553 60 275 5.2 13.0 0.00 0.00 0.00 41 1015.4
20260503183059 59 314 4.3 17.4 0.00 0.00 0.00 41 1015.5
20260503181549 59 256 4.3 13.0 0.00 0.00 0.00 41 1015.6
20260503180055 58 197 2.6 10.4 0.00 0.00 0.00 42 1015.8
20260503174544 58 198 2.6 13.0 0.00 0.00 0.00 42 1016.2
20260503173104 58 250 2.6 10.4 0.00 0.00 0.00 42 1016.3
20260503171546 57 224 2.6 13.9 0.00 0.00 0.00 43 1016.4
20260503081502 30 300 0.0 0.0 0.00 0.01 0.00 85 1017.1
20260503071607 32 300 0.0 0.0 0.00 0.01 0.00 84 1016.9
20260503054545 34 300 0.0 0.0 0.00 0.01 0.00 84 1017.1
20260503053046 34 300 0.0 0.0 0.00 0.01 0.00 84 1017.2
20260503051550 34 300 0.0 0.0 0.00 0.01 0.00 84 1017.2
20260503050042 34 300 0.0 0.0 0.00 0.01 0.00 84 1017.3
20260503044541 34 300 0.0 0.0 0.00 0.01 0.00 84 1017.4
20260503043039 34 300 0.0 0.0 0.00 0.01 0.00 83 1017.4
20260503041539 35 300 0.0 0.0 0.00 0.01 0.00 83 1017.4
20260503040037 35 300 0.0 0.0 0.00 0.01 0.00 83 1017.5
20260503034537 35 300 0.0 0.0 0.00 0.01 0.01 82 1017.5
20260503033043 35 300 0.0 0.0 0.00 0.01 0.01 82 1017.5
20260503031535 36 300 0.0 0.0 0.00 0.01 0.01 81 1017.4
20260503030035 36 300 0.0 0.0 0.00 0.01 0.01 80 1017.5
20260503024537 37 300 0.0 0.0 0.00 0.01 0.01 80 1017.5
20260503023033 38 300 0.0 0.0 0.00 0.01 0.01 80 1017.6
20260503021533 39 300 0.0 0.0 0.00 0.01 0.01 79 1017.6
20260503020034 39 300 0.0 0.0 0.00 0.01 0.01 79 1017.6
20260503014549 39 300 0.0 0.0 0.00 0.01 0.01 78 1017.6
20260503013036 40 300 0.0 0.0 0.00 0.01 0.01 77 1017.6
20260503011534 40 300 0.0 0.0 0.00 0.01 0.01 74 1017.7
20260503010041 41 300 0.0 0.0 0.00 0.01 0.01 74 1017.5
20260503004530 41 300 0.0 0.0 0.00 0.02 0.01 73 1017.3
20260503003029 41 300 0.0 0.0 0.00 0.02 0.01 69 1017.2
20260503001529 42 300 0.0 0.0 0.00 0.02 0.01 70 1017.2
20260503000029 42 300 0.0 0.0 0.00 0.02 0.01 71 1017.1
20260502234529 42 300 0.0 0.0 0.00 0.02 0.01 67 1016.9
20260502233028 42 300 0.0 0.0 0.00 0.02 0.01 65 1016.9
20260502231527 43 300 0.0 0.0 0.00 0.02 0.01 64 1016.9
20260502230027 43 300 0.0 5.2 0.00 0.02 0.01 63 1016.9
20260502224526 43 301 0.0 0.0 0.00 0.05 0.01 63 1016.8
20260502223026 43 301 0.0 0.0 0.00 0.05 0.01 65 1016.8
20260502221524 43 301 0.0 4.3 0.00 0.05 0.01 65 1016.8
20260502220026 43 306 0.0 4.3 0.00 0.05 0.01 67 1016.8
20260502214524 43 311 0.0 0.9 0.00 0.10 0.01 65 1016.7
20260502213022 43 313 0.0 1.7 0.00 0.10 0.01 67 1016.7
20260502211535 43 312 0.0 3.5 0.00 0.10 0.01 70 1016.6
20260502210023 43 312 0.0 0.0 0.00 0.10 0.01 72 1016.5
20260502204521 42 312 0.0 2.6 0.00 0.11 0.01 71 1016.6
20260502203020 43 312 0.0 0.9 0.00 0.11 0.01 72 1016.6
20260502201520 43 312 0.0 7.8 0.00 0.11 0.01 71 1016.7